Wind_Speed
19 18 17 18 17 15 8 4 7 11 17 23 21 18 17 18 19 19 16 15 14 15 16 17 17 18 18 17 17 15 15 14 14 14 14 14 13 12 12 11 10 9 8 7 6 5 5 4 3
19 19 19 19 18 15 6 5 10 16 23 25 21 17 16 19 21 20 18 16 16 15 17 18 19 20 20 19 19 18 16 15 15 15 15 15 14 13 13 12 11 10 9 8 7 6 6 5 4
19 19 20 19 18 14 9 8 14 20 25 25 22 20 18 20 19 18 17 17 17 16 18 19 19 20 21 21 20 19 19 17 16 16 16 16 15 14 13 13 12 10 9 8 8 7 6 5 4
19 19 20 19 17 13 12 13 17 22 24 23 21 21 21 22 19 17 17 17 17 17 18 20 20 20 20 21 21 20 20 19 18 17 17 16 16 15 14 14 12 11 10 9 8 8 7 6 5
20 20 19 18 16 14 15 18 23 26 24 23 22 22 24 23 21 17 17 18 18 18 18 19 20 21 20 21 21 20 20 20 19 19 18 18 17 16 15 15 13 12 11 10 9 9 8 7 7
19 19 18 16 12 12 15 20 24 26 24 22 22 22 25 25 22 19 18 18 18 17 18 18 19 20 19 20 21 20 20 20 20 19 19 19 18 17 16 16 14 13 12 11 11 10 9 8 8
18 18 16 14 12 13 17 22 24 24 22 20 20 22 25 28 23 20 19 19 19 18 17 18 18 19 20 21 22 21 21 21 21 20 20 19 19 19 18 17 16 14 13 13 12 11 10 10 9
17 17 15 13 13 15 19 24 26 25 23 21 22 23 27 28 25 22 20 20 20 20 19 20 19 19 20 22 23 23 22 22 22 21 21 20 20 19 19 18 17 16 15 14 13 12 11 11 10
16 16 14 11 12 16 20 24 23 23 23 22 23 24 28 30 26 25 22 22 22 21 20 20 20 21 21 23 24 24 24 22 22 22 21 21 21 20 20 19 18 17 16 16 15 14 13 12 12
15 15 13 14 19 23 23 24 23 24 23 22 22 25 29 29 28 25 24 24 24 22 21 21 21 22 23 24 24 25 25 23 23 23 23 22 22 22 21 20 20 19 18 17 16 15 14 14 13
16 16 17 19 23 25 25 25 26 26 25 22 22 25 28 29 28 26 26 27 26 25 23 21 22 23 25 24 24 25 25 25 24 25 24 24 23 22 22 22 21 20 19 18 18 17 16 16 15
17 18 19 21 24 25 25 26 26 26 26 24 25 27 29 30 29 28 28 28 27 27 25 24 23 24 24 25 25 25 25 25 25 25 26 25 24 23 23 23 22 21 21 20 19 19 18 17 17
17 19 20 22 24 25 26 26 27 27 26 27 28 29 30 31 31 29 28 29 29 28 28 26 25 25 25 25 25 26 26 26 26 26 26 26 25 25 24 23 23 23 22 21 20 20 20 19 18
18 19 20 22 24 25 25 25 25 24 24 26 28 29 30 30 31 31 31 31 31 30 29 27 27 26 27 27 26 27 28 28 27 27 26 27 26 25 25 25 24 23 23 22 22 22 21 21 20
16 18 19 20 22 22 23 22 21 21 23 26 26 28 30 31 31 33 33 33 32 31 31 29 29 28 27 27 28 29 29 29 29 28 28 27 27 26 26 26 25 24 23 23 23 23 22 22 22
14 14 14 15 19 21 20 18 17 20 24 25 26 28 29 29 30 33 33 34 31 31 30 30 29 28 28 28 29 29 30 29 29 28 28 27 27 26 26 27 26 25 24 24 24 23 23 23 23
10 10 10 12 19 21 20 17 16 23 26 26 27 27 28 29 31 33 33 34 33 33 31 31 31 30 30 30 29 29 30 30 30 30 29 29 28 28 27 27 26 26 26 25 25 24 24 24 25
8 11 12 14 19 22 21 19 20 25 27 28 28 27 28 29 30 32 33 34 34 34 34 34 32 31 31 31 30 29 29 29 30 31 30 29 29 30 29 27 26 27 27 26 26 26 25 26 26
15 16 17 17 19 23 23 21 23 24 27 29 29 28 27 29 30 30 32 35 35 35 35 35 33 32 31 31 30 29 27 28 30 30 29 28 28 29 29 28 29 28 28 28 28 27 27 27 28
14 14 14 16 19 22 21 22 23 24 27 26 27 26 28 28 29 29 32 33 34 34 35 35 34 33 32 31 30 27 28 28 26 26 27 27 27 28 28 28 28 29 30 29 29 30 30 30 31
13 14 15 17 17 20 22 23 22 23 24 23 25 25 25 28 29 30 32 32 32 34 34 35 34 34 33 32 31 28 25 23 23 23 24 24 26 26 28 29 29 29 30 31 31 32 32 32 32
14 15 17 18 19 19 22 25 24 25 24 22 23 24 24 26 28 30 31 31 31 33 34 34 34 34 32 31 29 28 25 24 23 23 22 24 25 24 25 26 28 28 30 31 32 32 32 32 33
16 15 18 19 20 20 20 25 23 25 24 21 20 20 20 23 26 27 29 31 33 33 34 34 34 34 31 30 29 28 27 24 23 21 21 22 23 24 23 24 26 29 31 32 32 32 33 33 34
15 15 15 15 18 20 19 23 25 26 22 19 18 17 19 22 24 26 28 29 31 32 33 33 35 35 31 30 30 29 28 25 23 22 21 22 23 23 23 24 25 28 31 32 33 34 34 35 36
15 15 15 17 18 19 19 21 21 21 19 20 17 16 18 20 22 24 27 29 30 31 31 32 34 34 32 30 30 29 28 26 24 22 22 22 22 22 23 24 26 28 29 31 33 34 35 36 35
14 14 16 18 19 20 17 19 18 17 16 18 18 18 19 19 21 23 24 26 28 29 29 31 32 32 31 30 28 28 28 26 24 23 21 21 22 23 23 25 26 27 29 30 32 34 35 35 34
11 11 14 17 17 20 19 17 18 16 16 16 17 18 19 19 20 21 22 24 25 26 26 28 29 29 29 29 28 28 27 25 23 23 22 22 23 24 25 25 26 27 28 29 31 33 34 34 34
11 11 12 14 17 19 20 19 16 16 15 15 16 17 18 19 20 20 21 22 23 24 23 25 26 27 27 27 27 27 26 24 24 24 24 23 24 24 25 26 26 26 27 27 28 30 32 33 33
11 11 12 13 16 19 22 22 20 17 13 13 14 16 16 17 19 20 21 21 21 21 22 23 24 25 25 26 26 26 25 24 24 25 25 24 24 24 25 25 25 25 26 27 28 29 30 30 31
10 11 12 14 16 18 21 22 20 18 13 14 15 16 15 16 18 18 19 20 21 21 22 23 24 25 25 25 25 25 25 25 25 25 25 24 24 24 24 24 24 25 26 26 27 27 28 28 28
Wind_Direction
258 254 253 252 252 252 250 230 246 254 257 261 264 261 256 258 260 263 268 271 263 262 259 250 244 240 237 234 231 229 230 231 235 238 240 240 240 241 242 240 236 234 233 233 233 232 233 233 243
257 253 251 250 250 247 257 291 247 248 253 261 268 268 259 257 260 265 270 272 267 267 263 254 247 243 240 236 234 233 234 235 238 242 243 243 245 247 248 244 242 241 240 239 235 229 228 231 239
256 253 251 250 249 242 208 230 246 242 252 263 267 270 265 260 263 267 269 269 268 267 264 256 251 246 242 239 238 236 237 237 240 245 247 247 248 250 251 249 248 246 246 242 237 231 226 229 235
256 253 252 252 250 238 215 229 249 252 259 264 266 268 269 267 266 265 267 267 265 263 263 257 250 245 244 241 240 239 240 240 242 246 250 252 253 253 252 252 251 250 248 243 239 234 229 230 233
254 253 252 251 249 239 225 229 243 249 257 265 268 267 268 271 269 265 266 265 264 262 261 261 251 245 243 239 238 241 242 244 245 247 250 253 255 255 254 254 253 251 250 245 240 236 233 232 234
252 251 250 250 253 256 250 244 247 252 254 260 267 268 269 270 270 268 265 262 263 261 260 263 257 250 248 244 241 243 245 246 248 249 251 253 256 257 255 255 253 251 249 246 242 239 237 234 235
249 247 246 244 239 243 252 251 250 253 257 257 259 264 268 270 270 268 265 262 261 261 259 258 258 257 252 249 245 246 248 248 249 250 252 254 255 256 256 255 252 250 248 245 243 242 237 235 237
245 246 242 239 242 244 249 254 257 259 259 256 255 257 261 268 269 268 263 261 262 260 256 254 255 255 254 252 247 247 249 249 250 251 253 254 255 255 255 254 253 251 249 246 244 243 239 238 241
245 246 243 238 244 249 252 258 262 265 264 259 258 259 260 265 268 267 264 261 260 257 254 253 252 252 252 251 248 247 250 250 250 252 253 254 255 254 254 253 252 250 249 246 245 244 241 240 244
245 245 242 244 242 243 248 259 265 267 268 266 262 261 263 265 267 265 263 261 258 255 253 254 253 253 252 250 247 247 248 249 250 252 253 253 254 254 253 253 252 250 248 247 247 246 244 244 246
248 248 245 247 253 258 260 263 267 268 268 266 261 258 261 262 263 262 260 258 257 256 255 253 253 253 253 251 250 249 248 249 250 252 251 251 251 252 252 251 251 250 249 248 248 248 246 247 249
257 256 256 258 262 266 267 266 267 268 267 262 257 255 260 262 261 258 256 257 255 255 255 256 252 253 254 251 251 251 249 249 249 251 251 250 250 250 250 251 251 250 249 248 249 249 249 250 252
264 265 266 268 269 271 271 270 270 269 268 263 260 258 257 259 261 257 255 255 254 252 253 255 252 247 252 249 249 250 250 249 250 250 250 250 248 249 250 250 249 249 248 247 250 251 252 253 255
267 271 272 274 275 275 275 274 272 271 267 264 262 258 257 257 257 258 255 252 251 248 247 249 250 249 252 248 251 251 249 249 248 248 248 247 247 250 250 250 249 249 249 250 252 253 254 255 258
274 277 281 283 281 280 279 277 274 269 264 263 261 258 257 256 252 250 251 251 245 245 247 249 250 249 253 250 249 251 251 250 247 246 246 244 245 247 248 249 249 248 248 250 252 252 253 256 258
282 285 291 291 284 285 284 280 270 263 262 262 260 258 257 254 252 249 249 249 248 246 244 247 249 251 254 253 252 252 249 250 249 246 245 241 242 244 246 247 246 248 248 250 252 254 255 258 261
299 297 299 285 282 285 285 279 266 259 259 265 264 258 256 254 252 250 248 247 248 246 244 246 248 251 253 254 254 251 248 248 249 244 242 242 243 242 246 246 246 248 249 250 252 255 257 259 262
282 275 271 268 275 279 281 278 268 265 264 266 267 262 256 252 249 247 246 246 243 243 243 244 246 248 251 253 251 249 247 247 247 246 242 242 243 242 242 244 247 249 250 251 252 254 256 258 262
256 253 255 262 265 270 275 273 265 263 266 268 266 262 256 251 247 245 244 242 241 240 242 243 246 247 250 253 253 251 248 245 246 246 241 242 242 244 245 244 247 248 250 251 253 255 257 258 260
272 275 276 274 271 274 278 276 270 269 267 267 262 256 253 250 249 245 242 240 240 240 241 243 245 246 249 251 252 253 250 249 251 247 242 243 248 248 247 246 247 249 250 250 254 256 257 259 261
285 283 277 274 277 281 286 282 275 267 270 268 263 262 257 252 251 246 245 243 240 239 241 243 245 247 248 250 252 255 253 250 253 252 246 247 249 254 253 250 250 252 251 253 255 257 258 259 260
286 283 280 278 277 276 278 280 282 275 271 264 264 261 258 255 251 248 245 244 242 242 244 243 245 247 249 250 249 251 252 251 253 255 252 254 253 257 257 254 253 254 256 257 257 258 259 260 261
284 279 279 278 278 277 275 279 282 279 271 258 262 258 257 257 254 252 247 246 244 242 243 242 246 247 247 247 248 250 248 251 252 258 259 260 259 262 265 261 258 258 258 258 258 259 259 261 264
294 287 282 278 277 277 277 277 279 285 282 277 266 261 260 256 252 250 249 247 245 243 244 244 248 250 250 248 247 249 251 252 257 260 262 263 266 266 269 265 263 263 259 258 258 259 262 262 265
297 294 289 282 280 283 272 269 273 275 284 289 279 273 267 257 254 250 248 248 248 249 248 248 249 251 252 251 251 252 254 255 261 261 264 265 267 269 270 269 267 265 262 260 261 262 263 265 266
290 288 288 292 297 302 291 281 278 276 284 285 285 280 270 262 258 253 249 249 249 251 251 251 250 252 253 255 255 256 257 260 260 264 269 268 271 272 273 272 269 268 267 264 262 262 263 264 267
290 282 288 295 299 298 296 295 280 276 284 288 288 283 273 267 261 256 253 250 248 250 251 251 249 250 253 254 255 257 259 260 263 264 268 270 272 274 274 272 271 269 267 265 264 263 263 264 265
297 291 289 291 295 300 301 298 289 289 297 294 290 287 278 267 261 258 256 255 252 253 252 249 249 249 252 255 258 260 263 264 265 265 268 271 273 273 273 271 269 268 266 264 264 265 267 267 268
288 290 287 287 290 296 299 303 305 307 299 301 298 290 280 269 261 258 257 256 254 252 251 250 251 251 252 254 256 259 262 263 264 266 268 270 271 270 269 268 267 266 267 269 270 271 271 270 270
280 286 288 289 289 291 293 300 305 310 303 300 300 293 282 272 265 263 258 256 255 254 254 252 254 255 255 257 257 259 261 263 263 264 267 267 267 267 268 269 269 270 271 273 274 274 274 272 272
Height
5868 5869 5870 5872 5874 5876 5878 5881 5884 5885 5882 5879 5880 5880 5880 5880 5878 5878 5875 5876 5879 5880 5881 5882 5883 5884 5885 5886 5887 5888 5888 5889 5890 5891 5892 5892 5893 5893 5893 5893 5894 5894 5894 5894 5894 5895 5895 5896 5896
5864 5865 5867 5868 5870 5872 5877 5880 5882 5882 5877 5876 5877 5877 5878 5876 5875 5875 5875 5876 5877 5878 5878 5880 5881 5882 5883 5884 5885 5886 5887 5888 5889 5890 5890 5891 5892 5892 5892 5892 5893 5893 5893 5893 5894 5894 5894 5895 5895
5860 5861 5863 5865 5867 5869 5874 5878 5878 5876 5873 5874 5874 5874 5874 5873 5873 5873 5874 5874 5874 5875 5876 5877 5878 5879 5881 5882 5883 5884 5885 5886 5887 5888 5889 5890 5890 5891 5891 5891 5891 5892 5892 5893 5893 5893 5894 5894 5895
5856 5858 5860 5862 5864 5867 5871 5874 5873 5872 5870 5871 5871 5871 5871 5870 5870 5870 5871 5871 5872 5873 5873 5874 5875 5876 5878 5879 5881 5882 5883 5884 5885 5886 5887 5888 5889 5889 5890 5890 5890 5891 5891 5892 5892 5893 5893 5894 5894
5852 5854 5856 5858 5860 5863 5867 5870 5869 5867 5868 5867 5868 5868 5867 5866 5866 5867 5869 5869 5869 5870 5871 5871 5872 5873 5874 5876 5878 5879 5881 5882 5883 5884 5885 5886 5887 5887 5888 5888 5889 5889 5890 5890 5891 5892 5892 5893 5894
5848 5850 5852 5854 5857 5861 5863 5864 5864 5863 5864 5865 5865 5864 5863 5862 5863 5864 5865 5866 5866 5867 5868 5868 5869 5870 5871 5873 5874 5876 5878 5879 5880 5881 5882 5883 5885 5885 5886 5887 5887 5888 5888 5889 5890 5891 5891 5892 5893
5844 5845 5847 5850 5855 5859 5861 5859 5858 5858 5860 5861 5862 5861 5859 5857 5859 5860 5862 5862 5862 5864 5865 5865 5866 5867 5868 5870 5871 5873 5874 5876 5877 5878 5880 5881 5882 5883 5884 5884 5885 5886 5886 5887 5888 5889 5890 5891 5892
5839 5842 5844 5847 5851 5854 5855 5853 5852 5853 5855 5856 5857 5857 5854 5853 5855 5856 5857 5858 5859 5860 5861 5861 5863 5864 5865 5866 5868 5869 5871 5872 5874 5875 5877 5878 5879 5880 5881 5882 5883 5884 5884 5885 5886 5887 5888 5889 5890
5836 5839 5841 5844 5847 5850 5849 5848 5848 5848 5849 5850 5851 5851 5849 5849 5851 5852 5853 5854 5854 5855 5855 5857 5859 5860 5861 5862 5864 5865 5867 5869 5870 5872 5873 5875 5876 5877 5878 5879 5880 5881 5882 5883 5884 5885 5886 5888 5888
5833 5835 5837 5840 5841 5842 5842 5842 5843 5843 5844 5845 5846 5846 5844 5844 5845 5847 5848 5849 5850 5851 5852 5853 5855 5856 5857 5858 5860 5861 5863 5864 5866 5868 5870 5871 5873 5874 5875 5876 5877 5878 5880 5881 5882 5883 5884 5885 5886
5829 5831 5832 5834 5834 5835 5836 5836 5837 5838 5839 5840 5841 5841 5839 5839 5840 5842 5843 5844 5845 5846 5847 5848 5849 5851 5853 5855 5856 5857 5859 5860 5862 5864 5866 5867 5869 5871 5872 5873 5874 5876 5877 5878 5880 5881 5882 5883 5884
5825 5826 5827 5828 5828 5829 5830 5830 5831 5831 5833 5834 5834 5834 5834 5834 5835 5836 5837 5838 5840 5841 5842 5843 5843 5846 5848 5850 5852 5853 5854 5856 5858 5859 5861 5863 5865 5867 5869 5870 5871 5873 5874 5875 5877 5878 5880 5881 5882
5821 5822 5822 5823 5823 5823 5824 5824 5824 5825 5826 5827 5827 5827 5828 5828 5828 5828 5830 5833 5834 5835 5837 5838 5837 5840 5842 5844 5846 5848 5849 5851 5853 5855 5856 5858 5861 5863 5865 5867 5868 5869 5870 5871 5874 5875 5877 5878 5879
5817 5817 5817 5817 5817 5817 5818 5818 5818 5819 5819 5819 5819 5820 5820 5821 5822 5822 5824 5826 5826 5827 5828 5829 5832 5833 5836 5839 5841 5842 5844 5846 5847 5850 5851 5854 5856 5859 5861 5863 5864 5865 5867 5868 5870 5872 5873 5874 5875
5812 5812 5812 5812 5811 5812 5812 5812 5812 5813 5812 5812 5812 5812 5813 5814 5815 5816 5817 5818 5817 5821 5822 5823 5824 5825 5829 5831 5834 5836 5838 5840 5842 5844 5846 5848 5851 5853 5855 5858 5860 5861 5863 5865 5866 5866 5868 5870 5871
5808 5808 5809 5808 5807 5807 5808 5808 5807 5806 5806 5805 5805 5806 5806 5807 5808 5808 5811 5810 5811 5815 5816 5819 5819 5821 5825 5826 5828 5830 5832 5834 5836 5838 5840 5842 5845 5847 5849 5853 5855 5856 5858 5860 5861 5862 5863 5866 5867
5805 5805 5807 5808 5804 5803 5803 5802 5802 5800 5799 5798 5798 5799 5799 5800 5801 5802 5803 5805 5807 5809 5811 5813 5815 5817 5819 5821 5822 5824 5826 5828 5831 5833 5834 5836 5839 5842 5844 5847 5849 5851 5853 5855 5857 5858 5860 5861 5862
5804 5805 5806 5806 5803 5799 5798 5798 5797 5794 5793 5792 5792 5792 5793 5793 5793 5795 5798 5800 5801 5804 5806 5807 5809 5811 5813 5814 5815 5818 5820 5822 5824 5826 5827 5830 5833 5835 5837 5841 5844 5846 5848 5849 5851 5853 5854 5856 5857
5799 5799 5800 5800 5799 5795 5794 5793 5791 5787 5786 5786 5786 5786 5786 5785 5786 5788 5790 5792 5794 5796 5799 5801 5803 5806 5808 5809 5810 5811 5813 5816 5818 5819 5819 5824 5828 5829 5830 5834 5838 5840 5842 5844 5846 5847 5849 5850 5851
5793 5794 5794 5794 5792 5790 5788 5787 5785 5783 5780 5778 5778 5779 5780 5779 5780 5783 5783 5784 5787 5790 5792 5795 5798 5801 5803 5804 5805 5805 5808 5811 5812 5813 5815 5818 5821 5823 5824 5827 5831 5834 5836 5838 5839 5841 5842 5844 5845
5789 5790 5790 5789 5787 5785 5783 5781 5779 5777 5774 5773 5773 5773 5774 5775 5776 5777 5777 5778 5782 5784 5786 5788 5792 5794 5796 5798 5799 5800 5803 5805 5807 5808 5810 5812 5815 5817 5819 5821 5825 5827 5829 5831 5833 5834 5835 5836 5838
5786 5786 5785 5783 5782 5781 5780 5776 5774 5770 5768 5768 5768 5768 5768 5770 5770 5771 5772 5773 5775 5777 5780 5783 5786 5789 5791 5792 5794 5796 5798 5799 5802 5804 5806 5808 5810 5812 5813 5815 5818 5820 5823 5825 5826 5827 5828 5830 5831
5782 5781 5780 5778 5776 5775 5775 5772 5770 5766 5762 5762 5762 5763 5763 5764 5765 5766 5766 5768 5769 5772 5775 5777 5780 5783 5785 5787 5789 5791 5793 5795 5797 5799 5802 5804 5806 5808 5809 5810 5812 5814 5816 5818 5820 5821 5822 5823 5824
5777 5776 5775 5773 5772 5771 5770 5768 5765 5761 5758 5757 5757 5758 5759 5759 5759 5760 5761 5763 5764 5767 5770 5772 5774 5777 5779 5782 5784 5785 5787 5789 5791 5794 5797 5799 5801 5803 5804 5805 5806 5808 5809 5811 5813 5814 5815 5816 5817
5775 5773 5771 5769 5768 5766 5764 5762 5759 5756 5756 5755 5754 5754 5755 5755 5755 5756 5757 5758 5760 5762 5764 5766 5769 5772 5774 5776 5778 5780 5782 5784 5786 5789 5792 5794 5795 5797 5798 5799 5800 5801 5802 5804 5805 5806 5807 5808 5809
5771 5770 5769 5766 5764 5761 5759 5757 5755 5751 5751 5751 5750 5750 5751 5751 5751 5751 5752 5754 5755 5757 5759 5761 5764 5766 5769 5771 5773 5774 5778 5780 5781 5785 5787 5788 5790 5791 5792 5793 5794 5795 5795 5796 5798 5799 5800 5801 5801
5768 5768 5767 5763 5762 5759 5756 5754 5750 5748 5748 5748 5747 5747 5747 5747 5747 5747 5748 5749 5750 5752 5754 5756 5759 5761 5764 5766 5768 5770 5773 5774 5777 5779 5781 5783 5784 5785 5786 5787 5787 5788 5788 5789 5790 5791 5792 5793 5794
5766 5765 5764 5762 5759 5756 5754 5750 5747 5745 5745 5745 5744 5743 5743 5743 5743 5744 5744 5745 5746 5747 5749 5751 5754 5756 5759 5761 5763 5765 5767 5769 5772 5774 5776 5778 5778 5779 5780 5780 5781 5781 5781 5782 5783 5784 5785 5785 5786
5765 5763 5761 5760 5757 5754 5751 5751 5746 5743 5742 5741 5741 5740 5739 5739 5740 5741 5741 5741 5742 5743 5745 5747 5749 5751 5753 5755 5758 5760 5762 5764 5766 5768 5770 5772 5773 5773 5774 5774 5775 5776 5776 5777 5777 5778 5778 5778 5779
5761 5761 5759 5758 5756 5753 5749 5750 5744 5741 5739 5739 5738 5737 5736 5736 5737 5737 5737 5738 5739 5740 5741 5743 5745 5747 5748 5750 5752 5754 5756 5759 5761 5762 5764 5765 5766 5767 5768 5769 5769 5770 5770 5771 5771 5771 5771 5772 5772